Tracking 27112 objects as of 26-Mar-2023
HD Live streaming from Space Station
objects crossing your sky now

STARLINK-4411

Track STARLINK-4411 now!
10-day predictions
STARLINK-4411 is classified as:


NORAD ID: 53202
Int'l Code: 2022-084P
Perigee: 571.2 km
Apogee: 574.2 km
Inclination: 97.7 °
Period: 96.0 minutes
Semi major axis: 6943 km
RCS: Unknown
Launch date: July 22, 2022
Source: United States (US)
Launch site: AIR FORCE WESTERN TEST RANGE (AFWTR)
Your satellite tracking list
Your tracking list is empty




NASA's NSSDC Master Catalog

Two Line Element Set (TLE):
1 53202U 22084P   23085.18615916 -.00000691  00000-0 -50290-4 0  9991
2 53202  97.6566 147.6237 0002162  89.5462 270.6010 15.00444465 37748
Source of the keplerian elements: AFSPC